When you browse on this site, cookies collect data to enhance your experience and personalize the content and advertising you see.
Visit our Privacy Policy to learn more. By continuing to use the site, you agree to this use of cookies and data.
  • In Hungary
  • List of Countries
  • For 7 days
  • Water Temperature
  • Satellite Maps
  • Weather Map
  • News
  • Weather Widgets
  • user-avatar
    Login

    Hourly Weather Mbini

    Today, 10 December, Monday

    Time Temperature Precipitation Wind Pressure Humidity
    00:00 +27°C° 0.1 mm 1 mps 760 mmHg 93%
    01:00 +27°C° 0.1 mm 2 mps 759 mmHg 94%
    02:00 +27°C° 0.5 mm 2 mps 759 mmHg 95%
    03:00 +27°C° 0.5 mm 2 mps 759 mmHg 96%
    04:00 +26°C° 0.5 mm 2 mps 758 mmHg 97%
    05:00 +27°C° 1.1 mm 2 mps 759 mmHg 96%
    06:00 +27°C° 1.1 mm 2 mps 759 mmHg 96%
    07:00 +27°C° 1.1 mm 2 mps 759 mmHg 96%
    08:00 +29°C° 0.3 mm 2 mps 759 mmHg 88%
    09:00 +30°C° 0.3 mm 2 mps 760 mmHg 81%
    10:00 +32°C° 0.3 mm 2 mps 760 mmHg 74%
    11:00 +32°C° 1 mm 2 mps 760 mmHg 73%
    12:00 +34°C° 1 mm 2 mps 759 mmHg 72%
    13:00 +34°C° 1 mm 2 mps 759 mmHg 71%
    14:00 +33°C° 0.5 mm 3 mps 758 mmHg 74%
    15:00 +31°C° 0.5 mm 3 mps 758 mmHg 77%
    16:00 +31°C° 0.5 mm 3 mps 757 mmHg 79%
    17:00 +30°C° 0.1 mm 3 mps 757 mmHg 83%
    18:00 +29°C° 0.1 mm 3 mps 758 mmHg 87%
    19:00 +28°C° 0.1 mm 2 mps 758 mmHg 91%
    20:00 +28°C° 0 mm 2 mps 759 mmHg 92%
    21:00 +28°C° 0 mm 2 mps 759 mmHg 93%
    22:00 +27°C° 0 mm 2 mps 760 mmHg 94%
    23:00 +27°C° 0.1 mm 3 mps 760 mmHg 95%

    Tomorrow, 11 December, Tuesday

    Time Temperature Precipitation Wind Pressure Humidity
    00:00 +27°C° 0.1 mm 3 mps 760 mmHg 95%
    01:00 +27°C° 0.1 mm 3 mps 759 mmHg 95%
    02:00 +27°C° 0 mm 3 mps 759 mmHg 96%
    03:00 +27°C° 0 mm 3 mps 758 mmHg 96%
    04:00 +27°C° 0 mm 3 mps 758 mmHg 97%
    05:00 +27°C° 0 mm 3 mps 758 mmHg 96%
    06:00 +27°C° 0 mm 3 mps 759 mmHg 95%
    07:00 +27°C° 0 mm 2 mps 759 mmHg 95%
    08:00 +29°C° 0 mm 2 mps 759 mmHg 86%
    09:00 +31°C° 0 mm 2 mps 760 mmHg 77%
    10:00 +34°C° 0 mm 2 mps 760 mmHg 68%
    11:00 +35°C° 0.4 mm 2 mps 759 mmHg 66%
    12:00 +35°C° 0.4 mm 2 mps 759 mmHg 64%
    13:00 +36°C° 0.4 mm 2 mps 758 mmHg 63%
    14:00 +35°C° 0.3 mm 3 mps 758 mmHg 67%
    15:00 +34°C° 0.3 mm 3 mps 757 mmHg 71%
    16:00 +33°C° 0.3 mm 3 mps 756 mmHg 75%
    17:00 +31°C° 0.2 mm 3 mps 757 mmHg 80%
    18:00 +29°C° 0.2 mm 3 mps 757 mmHg 85%
    19:00 +28°C° 0.2 mm 3 mps 758 mmHg 91%
    20:00 +28°C° 0.1 mm 2 mps 759 mmHg 92%
    21:00 +28°C° 0.1 mm 2 mps 759 mmHg 93%
    22:00 +28°C° 0.1 mm 2 mps 760 mmHg 94%
    23:00 +27°C° 0 mm 2 mps 760 mmHg 95%

    Day after tomorrow, 12 December, Wednesday

    Time Temperature Precipitation Wind Pressure Humidity
    00:00 +27°C° 0 mm 2 mps 759 mmHg 95%
    01:00 +27°C° 0 mm 3 mps 759 mmHg 96%
    02:00 +27°C° 0.1 mm 3 mps 759 mmHg 96%
    03:00 +27°C° 0.1 mm 3 mps 758 mmHg 96%
    04:00 +27°C° 0.1 mm 3 mps 758 mmHg 96%
    05:00 +27°C° 0.1 mm 3 mps 758 mmHg 96%
    06:00 +27°C° 0.1 mm 3 mps 759 mmHg 95%
    07:00 +27°C° 0.1 mm 2 mps 759 mmHg 95%
    08:00 +29°C° 0.2 mm 2 mps 759 mmHg 86%
    09:00 +31°C° 0.2 mm 2 mps 760 mmHg 77%
    10:00 +34°C° 0.2 mm 2 mps 760 mmHg 69%
    11:00 +34°C° 0.6 mm 2 mps 760 mmHg 68%
    12:00 +34°C° 0.6 mm 2 mps 759 mmHg 68%
    13:00 +34°C° 0.6 mm 3 mps 758 mmHg 68%
    14:00 +33°C° 0.3 mm 3 mps 758 mmHg 68%
    15:00 +33°C° 0.3 mm 3 mps 757 mmHg 69%
    16:00 +33°C° 0.3 mm 3 mps 756 mmHg 70%
    17:00 +31°C° 0.1 mm 3 mps 757 mmHg 75%
    18:00 +29°C° 0.1 mm 2 mps 758 mmHg 81%
    19:00 +28°C° 0.1 mm 2 mps 758 mmHg 87%
    20:00 +28°C° 0.2 mm 2 mps 759 mmHg 88%
    21:00 +27°C° 0.2 mm 1 mps 760 mmHg 89%
    22:00 +27°C° 0.2 mm 1 mps 760 mmHg 90%
    23:00 +27°C° 0 mm 2 mps 760 mmHg 90%

    13 December, Thursday

    Time Temperature Precipitation Wind Pressure Humidity
    00:00 +27°C° 0 mm 2 mps 759 mmHg 90%
    01:00 +27°C° 0 mm 3 mps 759 mmHg 90%
    02:00 +26°C° 0 mm 3 mps 758 mmHg 92%
    03:00 +26°C° 0 mm 2 mps 758 mmHg 94%
    04:00 +26°C° 0 mm 2 mps 758 mmHg 96%
    05:00 +26°C° 0 mm 2 mps 758 mmHg 95%
    06:00 +27°C° 0 mm 2 mps 759 mmHg 95%
    07:00 +27°C° 0 mm 1 mps 760 mmHg 95%
    08:00 +29°C° 0 mm 1 mps 760 mmHg 85%
    09:00 +31°C° 0 mm 1 mps 760 mmHg 75%
    10:00 +33°C° 0 mm 1 mps 761 mmHg 66%
    11:00 +35°C° 0 mm 2 mps 760 mmHg 62%
    12:00 +36°C° 0 mm 2 mps 759 mmHg 58%
    13:00 +37°C° 0 mm 3 mps 758 mmHg 54%
    14:00 +36°C° 0.1 mm 3 mps 757 mmHg 58%
    15:00 +35°C° 0.1 mm 3 mps 757 mmHg 63%
    16:00 +34°C° 0.1 mm 3 mps 756 mmHg 68%
    17:00 +31°C° 0.1 mm 3 mps 757 mmHg 75%
    18:00 +30°C° 0.1 mm 2 mps 757 mmHg 82%
    19:00 +29°C° 0.1 mm 2 mps 758 mmHg 90%
    20:00 +28°C° 0 mm 2 mps 758 mmHg 91%
    21:00 +28°C° 0 mm 2 mps 759 mmHg 92%
    22:00 +28°C° 0 mm 2 mps 759 mmHg 94%
    23:00 +28°C° 0 mm 2 mps 759 mmHg 94%

    14 December, Friday

    Time Temperature Precipitation Wind Pressure Humidity
    00:00 +27°C° 0 mm 2 mps 759 mmHg 94%
    01:00 +27°C° 0 mm 2 mps 758 mmHg 95%
    02:00 +27°C° 0 mm 3 mps 758 mmHg 95%
    03:00 +27°C° 0 mm 3 mps 758 mmHg 95%
    04:00 +27°C° 0 mm 3 mps 758 mmHg 95%
    05:00 +27°C° 0 mm 3 mps 758 mmHg 95%
    06:00 +27°C° 0 mm 2 mps 759 mmHg 94%
    07:00 +28°C° 0 mm 2 mps 759 mmHg 94%
    08:00 +29°C° 0.3 mm 2 mps 760 mmHg 86%
    09:00 +31°C° 0.3 mm 2 mps 760 mmHg 78%
    10:00 +32°C° 0.3 mm 2 mps 760 mmHg 70%
    11:00 +34°C° 0.3 mm 3 mps 759 mmHg 68%
    12:00 +34°C° 0.3 mm 3 mps 759 mmHg 67%
    13:00 +35°C° 0.3 mm 3 mps 758 mmHg 65%
    14:00 +34°C° 0.3 mm 4 mps 757 mmHg 68%
    15:00 +34°C° 0.3 mm 4 mps 757 mmHg 71%
    16:00 +33°C° 0.3 mm 4 mps 757 mmHg 75%
    17:00 +31°C° 0.3 mm 3 mps 757 mmHg 80%
    18:00 +30°C° 0.3 mm 3 mps 758 mmHg 86%
    19:00 +28°C° 0.3 mm 3 mps 759 mmHg 91%
    20:00 +28°C° 0.1 mm 2 mps 759 mmHg 92%
    21:00 +28°C° 0.1 mm 2 mps 759 mmHg 93%
    22:00 +28°C° 0.1 mm 2 mps 760 mmHg 93%
    23:00 +28°C° 0 mm 3 mps 759 mmHg 94%

    15 December, Saturday

    Time Temperature Precipitation Wind Pressure Humidity
    00:00 +27°C° 0 mm 3 mps 759 mmHg 94%
    01:00 +27°C° 0 mm 4 mps 758 mmHg 95%
    02:00 +27°C° 0 mm 3 mps 758 mmHg 95%
    03:00 +27°C° 0 mm 3 mps 758 mmHg 96%
    04:00 +27°C° 0 mm 3 mps 758 mmHg 96%
    05:00 +27°C° 0 mm 3 mps 758 mmHg 96%
    06:00 +27°C° 0 mm 3 mps 759 mmHg 95%
    07:00 +27°C° 0 mm 2 mps 759 mmHg 94%
    08:00 +29°C° 0 mm 3 mps 759 mmHg 85%
    09:00 +31°C° 0 mm 3 mps 760 mmHg 76%
    10:00 +34°C° 0 mm 3 mps 760 mmHg 67%
    11:00 +34°C° 0 mm 3 mps 759 mmHg 64%
    12:00 +35°C° 0 mm 3 mps 758 mmHg 61%
    13:00 +36°C° 0 mm 4 mps 758 mmHg 58%
    14:00 +35°C° 0.3 mm 4 mps 757 mmHg 62%
    15:00 +34°C° 0.3 mm 4 mps 757 mmHg 66%
    16:00 +33°C° 0.3 mm 4 mps 757 mmHg 70%
    17:00 +31°C° 0.2 mm 3 mps 757 mmHg 76%
    18:00 +30°C° 0.2 mm 3 mps 758 mmHg 83%
    19:00 +28°C° 0.2 mm 3 mps 758 mmHg 89%
    20:00 +28°C° 0.1 mm 3 mps 759 mmHg 90%
    21:00 +28°C° 0.1 mm 3 mps 759 mmHg 91%
    22:00 +28°C° 0.1 mm 2 mps 760 mmHg 92%
    23:00 +27°C° 0.1 mm 3 mps 759 mmHg 92%
    Show more